OneWeb SL0356

operational
NORAD ID: 49283 Int'l Des: 2021-090 Owner: ONEWEBN Country: UK Constellation: oneweb
LEOCIRCULARPOLARONEWEB_TYPE

Über OneWeb SL0356

Beschreibung wird geladen...

Live-Position

3D-Globus wird geladen...

Nächste Überflüge

Höhenverlauf

Altitude vs Time

uPlot chart will show altitude changes over time

Zweizeiliger Elementsatz

1 49283U 21090E 25257.92600727 .00000077 00000-0 15725-3 0 9999
2 49283 87.9270 329.3158 0002512 81.6866 278.4553 13.20770787193499
Epoch: 14. Sept. 2025 • Age: 17 hours

Aktueller Status

Höhe 1192.0 km
Geschwindigkeit 7.26 km/s
Subsatellitenpunkt 69.49°N, 115.81°E
Startdatum 14. Okt. 2021
Alter 3.9 years
Typ internet

Technische Details

Klassifizierung Payload
Masse 148.00 kg
Trockenmasse 140.00 kg
Gesamtmasse 148.00 kg
Länge 1.30 m
Durchmesser 1.00 m
Spannweite 5.00 m
Form Trapezoid+2 pan
Hersteller ONEWUS
Bus-Typ ARROW
Phasenstatus In Orbit
Besitzer/Staat ONEWEBN/UK

Große Konstellationen

Loading constellations...